Weather Service Report


990 
ASUS45 KSLC 020810
RWRUT 

UTAH REGIONAL WEATHER ROUNDUP
NATIONAL WEATHER SERVICE SALT LAKE CITY UT
200 AM MDT THU OCT 02 2014

UTZ001>011-023>025-020900-

NORTHERN UTAH
  
CITY           SKY/WX    TMP DP  RH WIND       PRES   REMARKS
HILL AFB       CLEAR     41  34  75 E12       30.22S                  
LOGAN          NOT AVBL                                               
OGDEN          CLEAR     43  35  73 S10       30.21S                  
PROVO AIRPORT  CLEAR     39  34  81 S6        30.24S WCI  35          
SALT LAKE CITY CLEAR     44  37  76 SE9       30.21F                  
VERNAL         MOCLDY    41  32  70 NW3       30.21S                  
WENDOVER       CLEAR     45  36  70 CALM      30.22S                  
HEBER CITY     CLEAR     32  30  93 CALM      30.26S                  
WEST JORDAN    CLEAR     43  34  70 SE3       30.23S                  

$$

UTZ012>022-026-027-020900-

SOUTHERN UTAH
  
CITY           SKY/WX    TMP DP  RH WIND       PRES   REMARKS
BRYCE CANYON   PTCLDY    27  22  81 SW6       30.28R WCI  20          
CEDAR CITY     PTCLDY    37  28  70 N8        30.24R WCI  31          
MILFORD        CLEAR     38  32  79 CALM      30.24S                  
MOAB/CYNLANDS  CLEAR     43  37  79 W5        30.19R                  
PRICE          CLEAR     42  28  57 SW5       30.22S                  
ST GEORGE      SUNNY     61  27  27 NE18G25   30.15R                  
KANAB            N/A     46  23  39 NE9       30.24R                  

$$

REGIONAL REPORTS     COLORADO/ARIZONA
  
CITY           SKY/WX    TMP DP  RH WIND       PRES   REMARKS
CRAIG, CO      CLOUDY    39  34  82 SW8       30.22R WCI  33          
GRAND JUNCTION CLEAR     42  38  85 N6        30.20R                  
RIFLE          MOCLDY    39  37  92 E6        30.21R WCI  35          
MONTROSE       PTCLDY    42  38  85 SE3       30.22R                  
CORTEZ         CLEAR     43  29  57 N9        30.15R                  
PAGE, AZ       CLEAR     56  22  26 NW6       30.16R                  
GRAND CANYON   CLEAR     31  28  89 NE3       30.22R                  
KINGMAN        CLEAR     54  37  52 N9        30.08S                  
FLAGSTAFF      PTCLDY    39  30  70 E3        30.21R                  

$$

REGIONAL REPORTS    NEVADA/IDAHO/WYOMING
  
CITY           SKY/WX    TMP DP  RH WIND       PRES   REMARKS
LAS VEGAS, NV  CLEAR     68  27  21 NE5       30.06R                  
ELY            PTCLDY    30  23  75 S9        30.27R WCI  22          
ELKO           CLEAR     34  26  72 CALM      30.24F                  
POCATELLO, ID  CLEAR     48  28  46 SW14G22   30.18S                  
BURLEY         CLEAR     41  32  70 SW14      30.18S                  
EVANSTON, WY   PTCLDY    31  28  89 SW10      30.24F WCI  22          
ROCK SPRINGS   CLEAR     34  29  82 SW16      30.20S WCI  24          

$$

Return to Home page


Western Regional Climate Center, wrcc@dri.edu